User: anonymous   Login
Location: Kelshall
(52.0000°N, 0.0500°W)
Time: 03:27:20
(UTC+00:00)
Language:

Terra - Orbit

View from above orbital plane
View from above orbital plane
View from above satellite
View from above satellite

Ground track
Ground track

The orbit data is extracted from the following two-line orbital elements,

1 25994U 99068A   20329.80758628  .00000083  00000-0  28549-4 0  9994
2 25994  98.1996  41.7432 0001167  91.1984   9.8365 14.57118071113664
Epoch (UTC): 24 November 2020 19:22:55
Eccentricity: 0.0001167
inclination: 98.1996°
perigee height: 701 km
apogee height: 703 km
right ascension of ascending node: 41.7432°
argument of perigee: 91.1984°
revolutions per day: 14.57118071
mean anomaly at epoch: 9.8365°
orbit number at epoch: 11366

The dashed part of the orbit path shows where the satellite is in the earth's shadow,  

DLR